Location: *
(42.9427°N, 22.2728°E)
Time: 03:35:29
(UTC+00:00)

Daily predictions for brighter satellites

Satellite Brightness Start Highest point End
(mag) Time Altitude Azimuth Time Altitude Azimuth Time Altitude Azimuth
Cosmos 2322 Rocket 4.2 01:07:00 22° NNE 01:07:00 22° NNE 01:08:57 10° NNE
USA 267 4.1 01:04:49 10° NE 01:09:08 45° NE 01:09:08 45° NE
Cosmos 2360 Rocket 3.8 01:18:08 31° ENE 01:18:08 31° ENE 01:21:22 10° NE
IDEFIX/ARIANE 42P 4.3 01:26:51 10° NE 01:31:20 28° E 01:32:04 27° ESE
Cosmos 1844 Rocket 3.6 01:38:56 44° NE 01:39:05 44° ENE 01:44:24 10° SE
USA 234 3.2 01:37:59 10° ESE 01:44:28 77° NE 01:44:28 77° NE
Cosmos 2333 Rocket 3.9 01:46:17 20° SE 01:48:51 28° ESE 01:53:35 10° NE
Cosmos 2251 Rocket 4.3 01:56:45 47° ESE 01:57:10 48° ESE 02:02:20 10° NNE
Cosmos 2098 Rocket 4.3 02:00:21 60° S 02:01:56 89° E 02:09:29 10° N
Cosmos 1386 Rocket 4.4 02:02:32 83° NNW 02:02:32 83° NNW 02:08:43 10° N
H-2A R/B 4.0 02:06:38 10° NNE 02:10:23 34° E 02:11:25 30° SE
PSLV R/B 4.5 02:09:48 10° NNE 02:12:54 44° NE 02:12:54 44° NE
SL-16 R/B 3.7 02:16:16 24° NNW 02:16:16 24° NNW 02:19:13 10° N
Cosmos 2322 3.7 02:14:18 74° S 02:14:47 81° ESE 02:20:32 10° NNE
ATLAS 2AS CENTAUR R/B 4.2 02:09:14 10° S 02:16:23 39° ESE 02:23:40 10° NE
USA 238 DEB 4.4 02:14:19 10° NNW 02:21:25 58° NE 02:28:42 10° SE
USA 238 4.4 02:14:26 10° NNW 02:21:31 57° NE 02:28:47 10° SE
COSMOS 2455 2.7 02:22:37 66° SW 02:23:33 87° WNW 02:29:37 10° NNE
ADEOS 3.5 02:20:04 10° NNE 02:25:19 85° ESE 02:26:27 56° S
Cosmos 2237 4.4 02:26:46 55° NW 02:26:46 55° NW 02:32:03 10° NNE
Cosmos 2219 Rocket 2.6 02:27:00 26° S 02:30:04 60° ESE 02:35:34 10° NNE
Cosmos 1378 3.8 02:30:43 52° ENE 02:30:43 52° ENE 02:33:57 10° NNE
ADEOS II 4.1 02:27:57 10° NNW 02:28:58 14° NNW 02:28:58 14° NNW
Cosmos 2237 Rocket 4.3 02:29:38 10° SSE 02:34:10 25° ESE 02:38:43 10° NE
BREEZE-M R/B 3.5 02:34:00 61° WNW 02:34:44 70° NNW 02:43:38 10° ENE
COSMOS 2428 2.8 02:36:07 25° S 02:39:28 72° ESE 02:45:08 10° NNE
BREEZE-M DEB (TANK) 2.9 02:43:09 51° WNW 02:44:01 60° NNW 02:46:58 10° NE
Meteor 1-31 Rocket 4.2 02:40:29 10° NNE 02:44:03 36° E 02:47:34 10° SSE
Cosmos 1709 Rocket 3.9 02:43:08 23° SSW 02:47:06 66° W 02:53:24 10° N
Cosmos 2322 Rocket 3.8 02:48:51 19° NW 02:48:51 19° NW 02:52:02 10° N
NOSS 3-2 (A) 4.3 02:41:29 10° NNW 02:49:02 72° NE 02:57:26 10° SE
Cosmos 1470 4.4 02:49:11 10° N 02:52:51 36° ENE 02:56:27 10° SE
NOSS 2-2 (E) 3.0 02:53:10 74° W 02:53:21 76° NW 02:57:27 10° NNE
USA 267 4.2 02:48:05 10° NE 02:53:49 34° NNW 02:56:29 25° WNW
Cosmos 1842 3.1 02:54:54 38° SSW 02:56:21 82° W 03:00:19 10° N
Intercosmos 25 4.3 02:54:50 10° NNW 02:59:30 70° W 03:07:10 10° S
Cosmos 2360 Rocket 3.1 02:59:56 29° WNW 03:00:11 29° NW 03:05:04 10° N
Cosmos 1733 3.0 02:58:08 10° N 03:02:01 78° W 03:05:51 10° S
Aureole 1 Rocket 3.8 03:01:49 10° SSW 03:08:51 68° WNW 03:14:16 10° NNE
CZ-4B R/B 3.0 03:04:53 10° NNE 03:09:01 73° E 03:12:54 10° S
NOSS 3-2 (C) 4.4 03:02:41 10° NNW 03:10:13 68° NE 03:18:36 10° SE
COSMOS 2441 4.4 03:05:25 10° N 03:10:16 61° WNW 03:15:05 10° SSW
IDEFIX/ARIANE 42P 3.1 03:06:10 10° N 03:10:59 38° WNW 03:12:52 28° WSW
MSX 3.9 03:10:31 10° N 03:16:05 55° WNW 03:21:39 10° SSW
Cosmos 389 Rocket 3.6 03:14:53 10° SSE 03:18:08 43° E 03:21:25 10° NNE
ERBS 3.2 03:17:13 18° SSW 03:19:29 47° SE 03:22:45 10° ENE
COSMO-SKYMED 1 3.6 03:17:50 10° SE 03:21:59 48° ENE 03:26:11 10° N
Cosmos 2074 Rocket 3.9 03:16:14 10° S 03:22:29 86° W 03:28:45 10° N
Cosmos 1844 Rocket 3.5 03:20:51 23° WNW 03:22:44 27° WSW 03:27:20 10° SSW
Meteor 1-22 Rocket 4.5 03:18:09 10° NNW 03:23:05 38° W 03:27:55 10° SSW
NOSS 3-4 (A) 3.9 03:20:32 10° SSW 03:26:25 64° ESE 03:32:38 10° NE
NOSS 3-4 (C) 3.9 03:20:36 10° SSW 03:26:31 63° ESE 03:32:44 10° NE
Cosmos 2181 Rocket 4.2 03:20:38 10° NNW 03:26:40 46° W 03:32:35 10° SSW
CZ-2C R/B 2.5 03:22:37 10° N 03:27:45 61° WNW 03:32:50 10° SSW
USA 234 4.0 03:22:12 10° S 03:27:52 31° SW 03:31:51 17° WNW
Meteor 1-21 4.2 03:23:25 10° SSW 03:28:54 59° WNW 03:34:28 10° N
NOSS 2-2 (D) 3.7 03:29:19 26° W 03:30:53 40° NW 03:34:47 10° NNE
Cosmos 2333 Rocket 2.5 03:28:22 15° SW 03:32:52 44° WNW 03:38:19 10° NNE
Okean O Rocket 3.3 03:29:54 10° NNE 03:34:00 36° E 03:38:02 10° SSE
PAYLOAD A 4.3 03:31:28 10° N 03:35:55 40° WNW 03:40:29 10° SW
Cosmos 2278 Rocket 2.2 03:31:41 10° NNW 03:37:24 87° WSW 03:43:04 10° SSE
Cosmos 1140 Rocket 4.1 03:32:50 10° S 03:37:56 59° ESE 03:43:02 10° NNE
Cosmos 1953 2.4 03:37:15 10° N 03:41:19 82° E 03:45:20 10° S
Cosmos 1726 Rocket 4.3 03:38:26 10° N 03:42:43 56° E 03:46:56 10° SSE
PSLV R/B 3.5 03:39:39 10° N 03:43:24 75° WNW 03:47:04 10° SSW
NOSS 0 Rocket 3.9 03:37:59 10° SSW 03:44:06 74° WNW 03:50:19 10° NNE
H-2A R/B 3.7 03:42:35 10° NNW 03:45:41 21° WNW 03:47:58 14° WSW
Cosmos 1758 3.5 03:42:35 10° NNW 03:46:25 47° W 03:50:16 10° SSW
SJ-12 4.2 03:43:28 10° NNE 03:47:33 71° ESE 03:51:38 10° S
Cosmos 614 Rocket 3.9 03:44:36 10° SSW 03:49:49 75° WNW 03:55:04 10° NNE
Cosmos 2058 Rocket 4.3 03:46:43 10° N 03:50:58 45° ENE 03:55:12 10° SSE
BREEZE-M DEB (TANK) 3.8 03:50:38 14° W 03:52:29 18° SW 03:54:28 10° S
Cosmos 1726 3.7 03:49:58 10° N 03:53:25 39° ENE 03:56:52 10° SSE
Cosmos 489 Rocket 4.5 03:47:16 10° NNW 03:53:26 65° WSW 03:59:37 10° S
ATLAS 3B R/B 2.9 03:48:01 10° NNW 03:54:45 79° NE 04:01:38 10° SE
Cosmos 1025 Rocket 4.1 03:52:13 10° SW 03:55:40 24° WNW 03:59:09 10° NNW
RESURS DK-1 4.3 03:54:13 10° S 03:57:58 34° ESE 04:01:43 10° NE
Cosmos 1356 4.3 03:54:39 10° N 03:58:04 54° ENE 04:01:27 10° SSE
Cosmos 2228 3.0 03:54:02 10° N 03:58:20 90° ESE 04:02:34 10° S
ALOS 2.5 04:00:56 10° NNE 04:05:38 79° ESE 04:10:18 10° S
METEOR-M 4.3 04:00:39 10° NNE 04:06:01 80° ESE 04:11:22 10° S
ATLAS 2AS CENTAUR R/B 3.2 03:59:19 10° SW 04:07:11 58° NW 04:15:07 10° NNE
BREEZE-M DEB (TANK) 1.7 04:05:34 10° WNW 04:07:56 86° SSW 04:10:39 10° ESE
PAYLOAD B 4.2 04:02:49 10° NNE 04:08:25 81° WNW 04:13:57 10° SSW
Cosmos 676 Rocket 4.1 04:03:55 10° SSW 04:09:13 88° ESE 04:14:31 10° NNE
SKYMED 2 3.8 04:05:46 10° S 04:09:59 51° W 04:14:14 10° NNW
COSMOS 2455 4.3 04:06:04 10° W 04:10:22 20° NW 04:14:40 10° N
Cosmos 921 Rocket 3.9 04:06:46 10° NW 04:10:23 27° W 04:13:57 10° SSW
CENTAUR R/B 3.3 04:02:19 10° NW 04:10:27 80° WSW 04:19:10 10° SSE
CZ-4B DEB 4.2 04:05:56 10° N 04:11:24 68° WNW 04:16:48 10° SSW
ASTEX 1 4.5 04:07:25 10° SSE 04:12:07 51° E 04:16:51 10° N
USA 238 DEB 4.5 04:05:44 10° NW 04:12:07 35° WSW 04:18:39 10° S
USA 238 4.5 04:05:50 10° NW 04:12:14 35° WSW 04:18:46 10° S
GP-B 3.2 04:08:50 10° S 04:13:12 57° W 04:17:35 10° N
OE (NEXTSAT) 4.4 04:09:55 10° WNW 04:13:27 83° SSW 04:16:58 10° ESE
Cosmos 1023 Rocket 4.5 04:08:50 10° SSW 04:13:59 65° WNW 04:19:07 10° NNE
Cosmos 2219 Rocket 3.4 04:10:05 10° WSW 04:14:26 23° NW 04:18:49 10° N
Meteor 1-4 Rocket 2.8 04:12:14 10° SSW 04:15:37 42° WNW 04:18:59 10° N
Cosmos 2237 Rocket 2.5 04:12:24 10° SW 04:17:53 49° WNW 04:23:25 10° NNE
Meteor 1-31 Rocket 4.3 04:15:43 10° NNW 04:18:10 17° WNW 04:20:37 10° WSW
Cosmos 1190 Rocket 4.3 04:15:01 10° SW 04:20:07 46° WNW 04:25:13 10° N
Cosmos 2154 Rocket 4.2 04:14:56 10° SSW 04:20:57 51° WNW 04:27:00 10° N
